Location: Archamps
(46.1365°N, 6.1329°E)
Time: 05:37:38
(UTC+00:00)

Cosmos 1023 Rocket - Pass Details

Date: 28 January 2023
Orbit: 736 x 771 km, 74.1° (Epoch: 21 March)

Event Time Altitude Azimuth Distance (km) Brightness Sun altitude
Rises 18:13:55 0° 202° (SSW) 3,200 8.1 -17.3°
Reaches altitude 10° 18:16:17 10° 203° (SSW) 2,273 7.3 -17.7°
Maximum altitude 18:21:26 82° 291° (WNW) 761 4.5 -18.6°
Enters shadow 18:26:23 11° 20° (NNE) 2,189 6.6 -19.4°
